Time,TemperatureF,DewpointF,PressureIn,WindDirection,WindDirectionDegrees,WindSpeedMPH,WindSpeedGustMPH,Humidity,HourlyPrecipIn,Conditions,Clouds,dailyrainin,SoftwareType,DateUTC
2013-06-20 00:05:00,73.3,64.0,29.92,South,175,0.0,0.0,72,0.00,,,0.00,weatherlink.com 1.10,2013-06-20 05:05:00,
2013-06-20 00:20:00,72.6,63.0,29.92,South,173,0.0,0.0,73,0.00,,,0.00,weatherlink.com 1.10,2013-06-20 05:20:00,
2013-06-20 00:35:00,72.0,64.0,29.92,South,173,0.0,0.0,75,0.00,,,0.00,weatherlink.com 1.10,2013-06-20 05:35:00,
2013-06-20 00:50:00,71.6,64.0,29.91,South,172,0.0,0.0,76,0.00,,,0.00,weatherlink.com 1.10,2013-06-20 05:50:00,
2013-06-20 01:05:00,71.4,64.0,29.91,South,179,0.0,0.0,76,0.00,,,0.00,weatherlink.com 1.10,2013-06-20 06:05:00,
2013-06-20 01:20:00,71.4,64.0,29.91,SSW,194,0.0,0.0,76,0.00,,,0.00,weatherlink.com 1.10,2013-06-20 06:20:00,
2013-06-20 01:35:00,71.2,63.0,29.92,SSW,193,0.0,0.0,76,0.00,,,0.00,weatherlink.com 1.10,2013-06-20 06:35:00,
2013-06-20 01:50:00,70.8,63.0,29.92,SSW,196,0.0,0.0,77,0.00,,,0.00,weatherlink.com 1.10,2013-06-20 06:50:00,
2013-06-20 02:05:00,70.4,64.0,29.92,SSW,196,0.0,0.0,79,0.00,,,0.00,weatherlink.com 1.10,2013-06-20 07:05:00,
2013-06-20 02:20:00,70.3,64.0,29.92,SSW,201,0.0,0.0,79,0.00,,,0.00,weatherlink.com 1.10,2013-06-20 07:20:00,
2013-06-20 02:35:00,70.3,64.0,29.92,SSW,205,0.0,0.0,79,0.00,,,0.00,weatherlink.com 1.10,2013-06-20 07:35:00,
2013-06-20 02:50:00,70.0,63.0,29.92,SSE,159,0.0,0.0,79,0.00,,,0.00,weatherlink.com 1.10,2013-06-20 07:50:00,
2013-06-20 03:05:00,69.7,63.0,29.92,South,184,0.0,0.0,80,0.00,,,0.00,weatherlink.com 1.10,2013-06-20 08:05:00,
2013-06-20 03:20:00,69.3,63.0,29.91,South,172,0.0,0.0,81,0.00,,,0.00,weatherlink.com 1.10,2013-06-20 08:20:00,
2013-06-20 03:35:00,68.9,63.0,29.91,SSW,199,0.0,0.0,81,0.00,,,0.00,weatherlink.com 1.10,2013-06-20 08:35:00,
2013-06-20 03:50:00,68.7,63.0,29.90,SSW,200,0.0,0.0,82,0.00,,,0.00,weatherlink.com 1.10,2013-06-20 08:50:00,
2013-06-20 04:05:00,68.6,63.0,29.90,South,189,0.0,0.0,82,0.00,,,0.00,weatherlink.com 1.10,2013-06-20 09:05:00,
2013-06-20 04:20:00,68.4,63.0,29.91,SSW,192,0.0,0.0,82,0.00,,,0.00,weatherlink.com 1.10,2013-06-20 09:20:00,
2013-06-20 04:35:00,68.2,63.0,29.92,South,183,0.0,0.0,82,0.00,,,0.00,weatherlink.com 1.10,2013-06-20 09:35:00,
2013-06-20 04:50:00,68.0,62.0,29.91,South,171,0.0,0.0,82,0.00,,,0.00,weatherlink.com 1.10,2013-06-20 09:50:00,
2013-06-20 05:05:00,67.9,62.0,29.91,South,171,0.0,0.0,82,0.00,,,0.00,weatherlink.com 1.10,2013-06-20 10:05:00,
2013-06-20 05:20:00,67.8,62.0,29.91,South,189,0.0,0.0,82,0.00,,,0.00,weatherlink.com 1.10,2013-06-20 10:20:00,
2013-06-20 05:35:00,67.8,62.0,29.91,South,180,0.0,0.0,82,0.00,,,0.00,weatherlink.com 1.10,2013-06-20 10:35:00,
2013-06-20 05:50:00,67.6,62.0,29.91,South,176,0.0,0.0,82,0.00,,,0.00,weatherlink.com 1.10,2013-06-20 10:50:00,
2013-06-20 06:05:00,67.7,62.0,29.91,South,182,0.0,0.0,82,0.00,,,0.00,weatherlink.com 1.10,2013-06-20 11:05:00,
2013-06-20 06:20:00,67.8,62.0,29.92,South,176,0.0,0.0,81,0.00,,,0.00,weatherlink.com 1.10,2013-06-20 11:20:00,
2013-06-20 06:36:00,68.0,62.0,29.91,South,169,0.0,0.0,81,0.00,,,0.00,weatherlink.com 1.10,2013-06-20 11:36:00,
2013-06-20 06:50:00,68.3,62.0,29.91,South,185,0.0,0.0,81,0.00,,,0.00,weatherlink.com 1.10,2013-06-20 11:50:00,
2013-06-20 07:06:00,69.0,63.0,29.91,South,183,0.0,0.0,80,0.00,,,0.00,weatherlink.com 1.10,2013-06-20 12:06:00,
2013-06-20 07:21:00,69.9,63.0,29.92,South,183,0.0,0.0,78,0.00,,,0.00,weatherlink.com 1.10,2013-06-20 12:21:00,
2013-06-20 07:36:00,70.7,63.0,29.92,SW,220,0.0,0.0,77,0.00,,,0.00,weatherlink.com 1.10,2013-06-20 12:36:00,
2013-06-20 07:51:00,71.5,64.0,29.91,ESE,116,0.0,0.0,76,0.00,,,0.00,weatherlink.com 1.10,2013-06-20 12:51:00,
2013-06-20 08:06:00,72.5,64.0,29.91,SSE,167,0.0,0.0,74,0.00,,,0.00,weatherlink.com 1.10,2013-06-20 13:06:00,
2013-06-20 08:21:00,73.6,64.0,29.91,SSE,151,0.0,0.0,72,0.00,,,0.00,weatherlink.com 1.10,2013-06-20 13:21:00,
2013-06-20 08:36:00,74.8,65.0,29.91,South,175,0.0,0.0,71,0.00,,,0.00,weatherlink.com 1.10,2013-06-20 13:36:00,
2013-06-20 08:51:00,75.8,65.0,29.92,SW,222,0.0,0.0,70,0.00,,,0.00,weatherlink.com 1.10,2013-06-20 13:51:00,
2013-06-20 09:06:00,76.3,65.0,29.92,SSW,198,0.0,0.0,69,0.00,,,0.00,weatherlink.com 1.10,2013-06-20 14:06:00,
2013-06-20 09:21:00,77.1,66.0,29.92,SSW,202,0.0,0.0,68,0.00,,,0.00,weatherlink.com 1.10,2013-06-20 14:21:00,
2013-06-20 09:36:00,78.3,66.0,29.92,South,177,0.0,0.0,67,0.00,,,0.00,weatherlink.com 1.10,2013-06-20 14:36:00,
2013-06-20 10:06:00,80.1,66.0,29.91,South,180,0.0,0.0,63,0.00,,,0.00,weatherlink.com 1.10,2013-06-20 15:06:00,
2013-06-20 10:21:00,81.0,66.0,29.91,South,180,0.0,0.0,61,0.00,,,0.00,weatherlink.com 1.10,2013-06-20 15:21:00,
2013-06-20 10:36:00,81.9,67.0,29.90,South,175,0.0,0.0,61,0.00,,,0.00,weatherlink.com 1.10,2013-06-20 15:36:00,
2013-06-20 10:51:00,82.3,66.0,29.90,South,190,0.0,0.0,58,0.00,,,0.00,weatherlink.com 1.10,2013-06-20 15:51:00,
2013-06-20 11:06:00,82.8,66.0,29.89,South,183,0.0,0.0,57,0.00,,,0.00,weatherlink.com 1.10,2013-06-20 16:06:00,
2013-06-20 11:21:00,83.0,65.0,29.89,SSW,209,0.0,0.0,54,0.00,,,0.00,weatherlink.com 1.10,2013-06-20 16:21:00,
2013-06-20 11:36:00,83.3,65.0,29.89,South,180,0.0,0.0,54,0.00,,,0.00,weatherlink.com 1.10,2013-06-20 16:36:00,
2013-06-20 11:51:00,83.9,65.0,29.88,SSW,209,0.0,0.0,53,0.00,,,0.00,weatherlink.com 1.10,2013-06-20 16:51:00,
2013-06-20 12:06:00,84.2,65.0,29.88,SSW,200,0.0,0.0,52,0.00,,,0.00,weatherlink.com 1.10,2013-06-20 17:06:00,
2013-06-20 12:21:00,84.3,64.0,29.88,SSW,211,0.0,0.0,51,0.00,,,0.00,weatherlink.com 1.10,2013-06-20 17:21:00,
2013-06-20 12:36:00,84.8,65.0,29.88,SSE,162,0.0,0.0,51,0.00,,,0.00,weatherlink.com 1.10,2013-06-20 17:36:00,
2013-06-20 12:51:00,85.1,64.0,29.88,SW,229,0.0,0.0,49,0.00,,,0.00,weatherlink.com 1.10,2013-06-20 17:51:00,
2013-06-20 13:06:00,85.9,65.0,29.87,South,191,0.0,0.0,49,0.00,,,0.00,weatherlink.com 1.10,2013-06-20 18:06:00,
2013-06-20 13:22:00,86.1,64.0,29.86,SSW,198,0.0,0.0,47,0.00,,,0.00,weatherlink.com 1.10,2013-06-20 18:22:00,
2013-06-20 13:37:00,86.2,64.0,29.86,SSW,194,0.0,0.0,47,0.00,,,0.00,weatherlink.com 1.10,2013-06-20 18:37:00,
2013-06-20 13:52:00,87.1,64.0,29.85,SSW,196,0.0,0.0,46,0.00,,,0.00,weatherlink.com 1.10,2013-06-20 18:52:00,
2013-06-20 14:07:00,86.7,64.0,29.86,SW,218,0.0,0.0,47,0.00,,,0.00,weatherlink.com 1.10,2013-06-20 19:07:00,
2013-06-20 14:22:00,87.1,64.0,29.86,SE,128,0.0,0.0,47,0.00,,,0.00,weatherlink.com 1.10,2013-06-20 19:22:00,
2013-06-20 14:37:00,87.8,65.0,29.85,SSW,196,0.0,0.0,46,0.00,,,0.00,weatherlink.com 1.10,2013-06-20 19:37:00,
2013-06-20 14:52:00,87.9,65.0,29.84,South,172,0.0,0.0,46,0.00,,,0.00,weatherlink.com 1.10,2013-06-20 19:52:00,
2013-06-20 15:07:00,88.7,65.0,29.84,SSW,202,0.0,0.0,46,0.00,,,0.00,weatherlink.com 1.10,2013-06-20 20:07:00,
2013-06-20 15:22:00,88.3,65.0,29.84,SSW,200,0.0,0.0,46,0.00,,,0.00,weatherlink.com 1.10,2013-06-20 20:22:00,
2013-06-20 15:37:00,87.7,65.0,29.84,SSW,200,0.0,0.0,47,0.00,,,0.00,weatherlink.com 1.10,2013-06-20 20:37:00,
2013-06-20 15:52:00,87.5,65.0,29.83,SE,144,0.0,0.0,48,0.00,,,0.00,weatherlink.com 1.10,2013-06-20 20:52:00,
2013-06-20 16:22:00,88.2,66.0,29.82,SW,221,0.0,0.0,48,0.00,,,0.00,weatherlink.com 1.10,2013-06-20 21:22:00,
2013-06-20 16:37:00,88.1,65.0,29.82,SSW,207,0.0,0.0,47,0.00,,,0.00,weatherlink.com 1.10,2013-06-20 21:37:00,
2013-06-20 16:52:00,87.9,65.0,29.81,ENE,72,0.0,0.0,47,0.00,,,0.00,weatherlink.com 1.10,2013-06-20 21:52:00,
2013-06-20 17:07:00,88.0,65.0,29.80,SSW,193,0.0,0.0,46,0.00,,,0.00,weatherlink.com 1.10,2013-06-20 22:07:00,
2013-06-20 17:22:00,87.8,65.0,29.80,South,186,0.0,0.0,47,0.00,,,0.00,weatherlink.com 1.10,2013-06-20 22:22:00,
2013-06-20 17:37:00,87.0,65.0,29.80,SSW,207,0.0,0.0,48,0.00,,,0.00,weatherlink.com 1.10,2013-06-20 22:37:00,
2013-06-20 17:52:00,87.5,65.0,29.80,SSW,200,0.0,0.0,48,0.00,,,0.00,weatherlink.com 1.10,2013-06-20 22:52:00,
2013-06-20 18:07:00,87.8,65.0,29.80,South,182,0.0,0.0,47,0.00,,,0.00,weatherlink.com 1.10,2013-06-20 23:07:00,
2013-06-20 18:22:00,87.5,65.0,29.80,South,170,0.0,0.0,48,0.00,,,0.00,weatherlink.com 1.10,2013-06-20 23:22:00,
2013-06-20 18:37:00,87.0,66.0,29.80,South,173,0.0,0.0,49,0.00,,,0.00,weatherlink.com 1.10,2013-06-20 23:37:00,
2013-06-20 18:52:00,86.7,66.0,29.80,SW,214,0.0,0.0,50,0.00,,,0.00,weatherlink.com 1.10,2013-06-20 23:52:00,
2013-06-20 19:07:00,86.0,66.0,29.80,SSW,212,0.0,0.0,51,0.00,,,0.00,weatherlink.com 1.10,2013-06-21 00:07:00,
2013-06-20 19:22:00,85.6,66.0,29.80,South,183,0.0,0.0,52,0.00,,,0.00,weatherlink.com 1.10,2013-06-21 00:22:00,
2013-06-20 19:37:00,85.3,66.0,29.80,South,187,0.0,0.0,53,0.00,,,0.00,weatherlink.com 1.10,2013-06-21 00:37:00,
2013-06-20 19:52:00,85.2,66.0,29.80,SSE,157,0.0,0.0,53,0.00,,,0.00,weatherlink.com 1.10,2013-06-21 00:52:00,
2013-06-20 20:07:00,84.4,66.0,29.81,SSE,160,0.0,0.0,55,0.00,,,0.00,weatherlink.com 1.10,2013-06-21 01:07:00,
2013-06-20 20:22:00,83.8,66.0,29.81,South,169,0.0,0.0,56,0.00,,,0.00,weatherlink.com 1.10,2013-06-21 01:22:00,
2013-06-20 20:37:00,83.5,66.0,29.82,SSW,198,0.0,0.0,56,0.00,,,0.00,weatherlink.com 1.10,2013-06-21 01:37:00,
2013-06-20 20:52:00,83.2,66.0,29.82,SSE,162,0.0,0.0,57,0.00,,,0.00,weatherlink.com 1.10,2013-06-21 01:52:00,
2013-06-20 21:07:00,82.9,66.0,29.82,SSW,198,0.0,0.0,57,0.00,,,0.00,weatherlink.com 1.10,2013-06-21 02:07:00,
2013-06-20 21:22:00,82.4,66.0,29.82,SSW,192,0.0,0.0,58,0.00,,,0.00,weatherlink.com 1.10,2013-06-21 02:22:00,
2013-06-20 21:37:00,81.9,66.0,29.82,SE,143,0.0,0.0,59,0.00,,,0.00,weatherlink.com 1.10,2013-06-21 02:37:00,
2013-06-20 21:52:00,81.5,66.0,29.82,South,181,0.0,0.0,60,0.00,,,0.00,weatherlink.com 1.10,2013-06-21 02:52:00,
2013-06-20 22:07:00,80.9,66.0,29.82,South,175,0.0,0.0,61,0.00,,,0.00,weatherlink.com 1.10,2013-06-21 03:07:00,
2013-06-20 22:22:00,80.5,66.0,29.82,South,189,0.0,0.0,62,0.00,,,0.00,weatherlink.com 1.10,2013-06-21 03:22:00,
2013-06-20 22:37:00,80.1,66.0,29.82,SSW,192,0.0,0.0,62,0.00,,,0.00,weatherlink.com 1.10,2013-06-21 03:37:00,
2013-06-20 22:52:00,79.8,66.0,29.81,SSE,161,0.0,0.0,62,0.00,,,0.00,weatherlink.com 1.10,2013-06-21 03:52:00,
2013-06-20 23:07:00,79.9,66.0,29.81,SSW,192,0.0,0.0,62,0.00,,,0.00,weatherlink.com 1.10,2013-06-21 04:07:00,
2013-06-20 23:22:00,79.9,66.0,29.81,South,190,0.0,0.0,62,0.00,,,0.00,weatherlink.com 1.10,2013-06-21 04:22:00,
2013-06-20 23:37:00,79.7,65.0,29.81,SSW,193,0.0,0.0,62,0.00,,,0.00,weatherlink.com 1.10,2013-06-21 04:37:00,
2013-06-20 23:52:00,79.1,65.0,29.81,WSW,240,0.0,0.0,63,0.00,,,0.00,weatherlink.com 1.10,2013-06-21 04:52:00,